Fort Myers, FL

7:38 PM EST on January 21, 2017 (GMT -0500)
Southwest Florida International Airport

Weather History for KRSW - October, 2012

Change the Weather History Date:

Friday, October 5, 2012

  Actual Average Record
Temperature  
Mean Temperature 82 °F -  
Max Temperature 91 °F 88 °F 93 °F (1998)
Min Temperature 73 °F 71 °F 63 °F (1987)
Cooling Degree Days 17    
Growing Degree Days 32 (Base 50)    
Moisture  
Dew Point 73 °F    
Average Humidity 88    
Maximum Humidity 100    
Minimum Humidity 53    
Precipitation  
Precipitation 0.76 in - - ()
Sea Level Pressure  
Sea Level Pressure 30.02 in    
Wind  
Wind Speed 6 mph (ENE)    
Max Wind Speed 14 mph    
Max Gust Speed 22 mph    
Visibility 6 miles    
Events Fog , Rain    
Averages and records for this station are not official NWS values.
T = Trace of Precipitation, MM = Missing Value Source: NWS Daily Summary

Daily Weather History Graph

Daily Weather History Graph

Search for Another Location

Airport or City:

Trip Planner

Search our weather history database for the weather conditions in past years. The results will help you decide how hot, cold, wet, or windy it might be!

Date:

Astronomy

Oct. 05, 2012 Rise Set
Actual Time 7:21 AM EDT 7:08 PM EDT
Civil Twilight 6:58 AM EDT 7:31 PM EDT
Nautical Twilight 6:31 AM EDT 7:58 PM EDT
Astronomical Twilight 6:04 AM EDT 8:25 PM EDT
Moon 10:56 PM EDT (10/5) 12:02 PM EDT (10/5)
Length of Visible Light 12h 33m
Length of Day
11h 46m
Waning Gibbous, 74% of the Moon is Illuminated
Oct 5
Waning Gibbous
Oct 8
Last Quarter
Oct 15
New
Oct 21
First Quarter
Oct 29
Full

Hourly Weather History & Observations

Time (EDT) Temp. Heat Index Dew Point Humidity Pressure Visibility Wind Dir Wind Speed Gust Speed Precip Events Conditions
12:53 AM 75.0 °F - 73.0 °F 94% 30.09 in 10.0 mi NE 4.6 mph - N/A   Clear
1:20 AM 75.2 °F - 73.4 °F 94% 30.09 in 10.0 mi NE 5.8 mph - N/A   Scattered Clouds
1:31 AM 75.2 °F - 73.4 °F 94% 30.09 in 10.0 mi ENE 4.6 mph - N/A   Mostly Cloudy
1:53 AM 75.0 °F - 73.0 °F 94% 30.08 in 10.0 mi NNE 5.8 mph - N/A   Overcast
2:53 AM 75.0 °F - 73.0 °F 94% 30.07 in 10.0 mi NE 5.8 mph - N/A   Overcast
3:53 AM 75.0 °F - 73.0 °F 94% 30.05 in 10.0 mi NE 5.8 mph - N/A   Mostly Cloudy
4:53 AM 75.0 °F - 73.0 °F 94% 30.04 in 9.0 mi NE 4.6 mph - N/A   Overcast
5:00 AM 73.4 °F - 73.4 °F 100% 30.05 in 7.0 mi NE 3.5 mph - N/A   Overcast
5:20 AM 73.4 °F - 73.4 °F 100% 30.05 in 1.8 mi NE 6.9 mph - N/A   Overcast
5:35 AM 73.4 °F - 73.4 °F 100% 30.05 in 0.5 mi NE 8.1 mph - N/A Fog Fog
5:49 AM 73.4 °F - 73.4 °F 100% 30.06 in 0.2 mi NNE 6.9 mph - N/A Fog Fog
5:53 AM 73.9 °F - 73.0 °F 97% 30.05 in 0.2 mi Variable 4.6 mph - N/A Fog Fog
6:08 AM 73.4 °F - 73.4 °F 100% 30.06 in 0.5 mi NE 5.8 mph - N/A Fog Fog
6:53 AM 75.0 °F - 73.9 °F 96% 30.06 in 0.8 mi NNE 4.6 mph - N/A   Mist
7:11 AM 75.2 °F - 73.4 °F 94% 30.07 in 1.0 mi NNE 4.6 mph - N/A   Overcast
7:43 AM 75.2 °F - 73.4 °F 94% 30.06 in 0.5 mi NE 6.9 mph - N/A Fog Fog
7:53 AM 75.0 °F - 73.9 °F 96% 30.06 in 0.5 mi NE 6.9 mph - N/A Fog Fog
8:37 AM 75.2 °F - 75.2 °F 100% 30.07 in 1.2 mi NE 4.6 mph - N/A   Overcast
8:53 AM 75.9 °F - 75.0 °F 97% 30.06 in 1.8 mi ENE 3.5 mph - N/A   Overcast
9:49 AM 77.0 °F - 75.2 °F 94% 30.07 in 10.0 mi East 5.8 mph - N/A   Overcast
9:53 AM 78.1 °F - 75.9 °F 93% 30.06 in 10.0 mi East 4.6 mph - N/A   Overcast
10:53 AM 84.0 °F 92.6 °F 75.9 °F 76% 30.06 in 10.0 mi ESE 8.1 mph - N/A   Scattered Clouds
11:53 AM 86.0 °F 93.8 °F 73.9 °F 67% 30.05 in 10.0 mi East 9.2 mph - N/A   Scattered Clouds
12:53 PM 87.1 °F 94.5 °F 73.0 °F 63% 30.03 in 10.0 mi ESE 8.1 mph - N/A   Partly Cloudy
1:53 PM 89.1 °F 96.0 °F 72.0 °F 57% 30.00 in 10.0 mi Calm Calm - N/A   Scattered Clouds
2:53 PM 91.0 °F 98.2 °F 72.0 °F 53% 29.96 in 10.0 mi NE 5.8 mph - N/A   Mostly Cloudy
3:53 PM 91.0 °F 99.3 °F 73.0 °F 55% 29.93 in 10.0 mi North 9.2 mph - N/A   Partly Cloudy
4:53 PM 89.1 °F 96.0 °F 72.0 °F 57% 29.91 in 10.0 mi Calm Calm - N/A   Clear
5:53 PM 84.9 °F 90.7 °F 72.0 °F 65% 29.94 in 10.0 mi NE 8.1 mph - N/A   Overcast
6:09 PM 78.8 °F - 69.8 °F 74% 29.94 in 3.0 mi NE 13.8 mph 21.9 mph 0.05 in Rain Rain
6:17 PM 78.8 °F - 73.4 °F 83% 29.93 in 3.0 mi North 9.2 mph 21.9 mph 0.06 in Rain Light Rain
6:48 PM 77.0 °F - 75.2 °F 94% 29.97 in 1.8 mi ESE 6.9 mph - 0.18 in Rain Heavy Rain
6:53 PM 77.0 °F - 75.0 °F 94% 29.96 in 0.5 mi South 8.1 mph - 0.43 in Fog , Rain Heavy Rain
7:01 PM 75.2 °F - 73.4 °F 94% 29.97 in 0.8 mi SSE 12.7 mph - 0.17 in Rain Heavy Rain
7:07 PM 75.2 °F - 71.6 °F 89% 29.98 in 2.5 mi South 10.4 mph - 0.18 in Rain Light Rain
7:14 PM 75.2 °F - 71.6 °F 89% 29.98 in 4.0 mi SE 6.9 mph - 0.23 in Rain Light Rain
7:22 PM 73.4 °F - 71.6 °F 94% 29.99 in 2.0 mi South 5.8 mph - 0.32 in Rain Light Rain
7:31 PM 75.2 °F - 71.6 °F 89% 29.99 in 10.0 mi SSW 8.1 mph - 0.32 in Rain Light Rain
7:48 PM 73.4 °F - 71.6 °F 94% 29.99 in 10.0 mi WSW 11.5 mph - 0.32 in Rain Light Rain
7:53 PM 73.0 °F - 69.1 °F 87% 29.99 in 10.0 mi WSW 9.2 mph - 0.32 in Rain Light Rain
8:53 PM 73.0 °F - 71.1 °F 93% 30.01 in 10.0 mi North 4.6 mph - 0.01 in Rain Light Rain
9:53 PM 75.0 °F - 73.0 °F 94% 30.02 in 10.0 mi ENE 3.5 mph - 0.00 in   Overcast
10:53 PM 73.9 °F - 72.0 °F 93% 30.00 in 10.0 mi East 3.5 mph - N/A   Clear
11:53 PM 73.9 °F - 72.0 °F 93% 29.99 in 10.0 mi Calm Calm - N/A   Clear